Showing default

DMC 3-FM2, 40716

Orbit data source: Space-Track

DMC 3-FM2, 40716 is a payload satellite owned by DMCii (UK) in SSO that was launched on Fri, 10 Jul 2015 UTC via a PSLV-XL launch vehicle from the Sirharikota (SRI). Payload-class satellites include a variety of spacecraft equipped with specific instruments for various scientific and technological missions. These include communications satellites like Starlink; space stations such as the ISS; scientific satellites like the Hubble; Earth observation satellites from companies like Planet Labs, Umbra, and HawkEye 360; GPS; miniature CubeSats for education and research; and military/defense satellites.

Loading next visibility...
Identifier
40716, 2015-032B
Orbit
SSO
Country
Flag of UKUK
Related business
Manufacturer
SSTL (Astrium)
Mission
Operational Commercial Imaging
Bus & Motor
SSTL-300S1, Unknown motor
Mass
447 kg wet, 435 kg dry
Launch date (UTC)
2015-07-10 (10 years ago)
Launch vehicle
PSLV-XL
Launch site
Sirharikota (SRI)
Object type
Payload
Rocket body
Debris
Shape & HBR
Hept Cyl + Cyl, 1.3 m
Radar Cross Section
2.356 m², Large (>1 m²)

Expand to show TLE details & history
Last TLE update: 9 hours ago

TLE from 9 hours ago
0 DMC 3-FM2
1 40716U 15032B   25242.97828522  .00000843  00000-0  10441-3 0  9995
2 40716  97.6916 115.2586 0004900 303.2276  56.8469 14.85176613546827
Epoch: 2025-08-30T23:28Z
TLE epoch observation values (Epoch: 2025-08-30T23:28:43.843Z)
Latitude
-0.00002°
Longitude
143.6711°
Altitude
614.194 km
Speed
7.553 km/s
True Right ascension
07h 41m 02s
True Declination
0° 00' 00"
Sunlit
Object was in daylight at epoch
Visualization orbit readout
Latitude
Unknown
Longitude
Unknown
Altitude
Unknown
Speed
Unknown
Apparent Right ascension
Unknown
Apparent Declination
Unknown
Sunlit
N/A
Visualization observer readout
Local Sidereal Time
00:10:29
Azimuth
Unknown
Elevation
Unknown
Doppler factor
Unknown
Orbital elements
Apogee altitude
613.48 km
Perigee altitude
606.632 km
Semi-major axis
6,988.193 km
Eccentricity
0.00049
Inclination
97.6916°
RAAN
115.2586°
Arg. of periapsis
303.2276°
True anomaly
56.89393°
Mean anomaly
56.8469°
Eccentric anomaly
56.87041°
Mean motion
3.71532 °/min
Orbital period
96.9 mins
BSTAR
0.00010441
Loading maneuver chart data...
Computing Atmospheric mass density...
Loading historical data...
Loading historical data...
Loading historical data...
Loading historical data...
Loading historical data...
Loading historical data...
Loading historical data...
Other satellites on launch #32 in the year 2015 (2015-07-10 UTC)

Documentation

Showing up to 5 results
|